Weather reports worldwide

Advertisment
Chieming, Germany (10982): temperature & dewpoint: 07.07.2020 07:00:00 - 13.07.2020 07:00:00 (CEST)Chieming, Germany (10982): temperature 5cm & temperature -5cm: 07.07.2020 07:00:00 - 13.07.2020 07:00:00 (CEST)Chieming, Germany (10982): temperature -20cm & temperature -100cm: 07.07.2020 07:00:00 - 13.07.2020 07:00:00 (CEST)Chieming, Germany (10982): wind speed & gusts: 07.07.2020 07:00:00 - 13.07.2020 07:00:00 (CEST)Chieming, Germany (10982): wind direction: 07.07.2020 07:00:00 - 13.07.2020 07:00:00 (CEST)Chieming, Germany (10982): reduced air pressure: 07.07.2020 07:00:00 - 13.07.2020 07:00:00 (CEST)Chieming, Germany (10982): visibility: 07.07.2020 07:00:00 - 13.07.2020 07:00:00 (CEST)Chieming, Germany (10982): sunshine duration: 07.07.2020 07:00:00 - 13.07.2020 07:00:00 (CEST)Chieming, Germany (10982): precipitation: 07.07.2020 07:00:00 - 13.07.2020 07:00:00 (CEST)
Date & Time tt [°C] td [°C] tt 5cm [°C] tt -5cm [°C] tt -20cm [°C] tt -100cm [°C] ff [km/h] ff [kn] fx [km/h] fx [kn] dd ppp [hPa] vv [km] sd [min] rr [mm]
13.07.2020 07:00:00 10,2 7,6 10,9 14,1 18,8 18,0 10 5 12 7 ENE 1023,9 74 57 0,0
13.07.2020 06:00:00 8,0 6,6 6,5 14,4 19,2 18,0 10 5 13 7 ENE 1024,6 75 0 0,0
13.07.2020 05:00:00 8,3 6,8 6,4 14,9 19,5 18,0 9 5 14 8 E 1024,5 54 0 0,0
13.07.2020 04:00:00 8,7 7,1 7,2 15,5 19,9 18,0 11 6 15 8 E 1024,9 58 0 0,0
13.07.2020 03:00:00 9,5 7,4 7,4 16,2 20,3 18,0 9 5 12 6 ENE 1025,0 72 0 0,0
13.07.2020 02:00:00 10,7 7,7 8,2 16,9 20,7 18,0 7 4 16 8 E 1024,9 57 0 0,0
13.07.2020 01:00:00 11,2 8,3 8,9 17,7 21,1 18,1 9 5 14 7 E 1025,1 70 0 0,0
13.07.2020 00:00:00 11,8 8,5 9,3 18,6 21,4 18,1 10 6 14 8 E 1025,2 75 0 0,0
12.07.2020 23:00:00 13,3 8,4 10,5 19,7 21,7 18,1 11 6 15 8 E 1025,3 73 0 0,0
12.07.2020 22:00:00 14,2 8,6 11,2 21,1 21,9 18,1 9 5 11 6 E 1025,0 72 0 0,0
12.07.2020 21:00:00 16,8 8,5 13,6 22,8 22,0 18,1 6 4 13 7 NE 1024,1 68 42 0,0
12.07.2020 20:00:00 18,7 7,4 18,6 24,2 21,9 18,1 10 5 19 11 ENE 1023,7 75 60 0,0
12.07.2020 19:00:00 19,5 8,7 21,5 25,2 21,7 18,1 10 5 21 11 ENE 1023,6 64 58 0,0
12.07.2020 18:00:00 19,0 6,3 19,9 26,0 21,4 18,1 11 6 25 14 NE 1023,9 75 50 0,0
12.07.2020 17:00:00 20,0 8,2 24,0 26,5 21,0 18,1 8 4 23 12 ENE 1023,6 53 60 0,0
12.07.2020 16:00:00 19,4 8,9 24,1 26,4 20,5 18,1 16 9 24 13 NE 1024,0 53 56 0,0
12.07.2020 15:00:00 19,3 8,1 25,1 25,6 20,1 18,1 11 6 27 15 NNE 1024,3 55 59 0,0
12.07.2020 14:00:00 19,3 8,0 24,2 24,7 19,6 18,1 13 7 25 14 NE 1024,4 58 60 0,0
12.07.2020 13:00:00 18,3 7,1 23,2 23,3 19,2 18,1 18 10 26 14 NE 1024,9 74 58 0,0
12.07.2020 12:00:00 17,7 9,7 23,1 22,0 18,8 18,1 15 8 23 13 NNE 1024,9 75 56 0,0
12.07.2020 11:00:00 17,6 10,5 21,5 20,4 18,5 18,1 13 7 22 12 ENE 1024,8 75 59 0,0
12.07.2020 10:00:00 16,2 11,7 20,4 18,6 18,4 18,1 10 5 19 10 E 1025,1 54 50 0,0
12.07.2020 09:00:00 14,0 12,0 16,3 17,2 18,5 18,1 9 5 16 8 NE 1025,7 54 29 0,0
12.07.2020 08:00:00 12,8 12,2 14,0 16,0 18,6 18,1 13 7 16 9 ENE 1025,7 8 40 0,0
12.07.2020 07:00:00 12,2 11,6 12,2 15,6 18,8 18,1 8 4 10 6 ENE 1025,4 32 5 0,0
12.07.2020 06:00:00 11,6 11,5 11,4 15,7 19,0 18,1 5 3 8 4 ESE 1025,1 7 0 0,0
12.07.2020 05:00:00 11,3 11,1 10,3 16,1 19,2 18,1 4 2 7 4 ENE 1024,8 3,9 0 0,0
12.07.2020 04:00:00 12,3 11,8 12,0 16,4 19,4 18,1 5 3 9 5 SE 1024,6 23 0 0,0
12.07.2020 03:00:00 12,2 11,6 12,0 16,4 19,6 18,1 3 2 8 4 ENE 1024,9 37 0 0,0
12.07.2020 02:00:00 12,2 11,5 12,0 16,4 19,9 18,1 5 3 14 7 SE 1024,9 57 0 0,0
12.07.2020 01:00:00 10,9 10,6 10,7 16,6 20,1 18,1 9 5 11 6 ENE 1025,6 23 0 0,0
12.07.2020 00:00:00 11,7 10,9 10,3 17,2 20,4 18,0 4 2 13 7 SE 1025,0 57 0 0,0
11.07.2020 23:00:00 12,2 11,1 11,0 18,1 20,6 18,0 9 5 13 7 SSE 1024,9 54 0 0,0
11.07.2020 22:00:00 12,8 11,7 12,3 19,0 20,7 18,0 11 6 22 12 SSE 1024,6 58 0 0,5
11.07.2020 21:00:00 15,7 13,4 14,8 19,7 20,8 18,0 5 3 15 8 N 1023,3 43 11 0,0
11.07.2020 20:00:00 16,5 12,9 15,9 20,2 20,8 18,0 7 4 14 7 W 1022,5 53 8 0,0
11.07.2020 19:00:00 15,9 13,4 16,2 20,5 20,8 18,0 8 5 16 9 SSW 1022,3 58 0 0,0
11.07.2020 18:00:00 15,8 14,2 16,9 20,2 20,9 18,0 8 5 13 7 S 1022,4 42 0 0,3
11.07.2020 17:00:00 15,4 13,1 15,7 20,2 20,9 18,0 6 3 13 7 WNW 1022,5 49 0 0,1
11.07.2020 16:00:00 14,8 13,5 15,8 19,9 21,0 18,0 8 4 26 14 NW 1022,0 18 0 0,6
11.07.2020 15:00:00 14,6 13,4 14,6 20,0 21,0 18,0 13 7 25 14 SW 1022,0 7 0 0,7
11.07.2020 14:00:00 15,5 12,8 15,3 20,2 21,1 17,9 13 7 22 12 W 1021,5 20 0 0,3
11.07.2020 13:00:00 15,8 12,6 15,4 20,2 21,1 17,9 11 6 23 13 W 1021,0 29 0 0,9
11.07.2020 12:00:00 16,2 13,1 16,0 20,1 21,2 17,9 9 5 16 9 WSW 1020,6 25 0 1,0
11.07.2020 11:00:00 15,8 14,7 16,4 19,7 21,3 17,9 7 4 13 7 SW 1020,2 14 0 0,8
11.07.2020 10:00:00 15,1 14,0 15,5 19,2 21,6 17,9 8 5 14 8 SSW 1020,0 15 0 0,3
11.07.2020 09:00:00 14,8 14,4 15,2 18,9 21,9 17,9 10 5 17 9 S 1019,9 21 0 2,6
11.07.2020 08:00:00 14,6 14,3 14,8 19,1 22,2 17,9 10 5 17 9 S 1019,6 10 0 3,5
11.07.2020 07:00:00 15,0 13,9 14,7 19,5 22,5 17,9 6 4 16 9 WNW 1018,8 14 0 3,1
11.07.2020 06:00:00 14,5 13,7 14,4 20,0 22,8 17,9 12 7 29 16 WNW 1018,7 6 0 3,6
11.07.2020 05:00:00 15,2 14,1 14,9 20,8 23,1 17,9 16 9 32 17 WNW 1017,9 7 0 0,7
11.07.2020 04:00:00 17,0 15,4 16,3 21,3 23,4 17,8 8 5 20 11 W 1016,8 54 0 0,0
11.07.2020 03:00:00 16,2 14,9 15,9 21,7 23,7 17,8 3 2 16 9 W 1017,1 52 0 0,0
11.07.2020 02:00:00 16,7 14,9 16,3 22,3 24,0 17,8 10 6 18 10 N 1017,1 62 0 0,0
11.07.2020 01:00:00 17,7 17,0 17,6 22,7 24,3 17,8 4 2 9 5 N 1016,9 43 0 0,3
11.07.2020 00:00:00 17,5 17,0 17,5 23,0 24,6 17,8 3 2 8 4 NNE 1016,7 28 0 0,2
10.07.2020 23:00:00 17,7 16,4 17,1 23,7 24,9 17,8 7 4 15 8 SSE 1016,3 24 0 1,0
10.07.2020 22:00:00 18,5 16,6 17,6 24,5 25,2 17,8 6 3 41 22 WSW 1016,3 54 0 1,2
10.07.2020 21:00:00 20,0 16,5 19,6 25,4 25,5 17,8 14 8 27 14 NW 1015,0 59 0 0,0
10.07.2020 20:00:00 20,4 15,5 19,9 26,4 25,8 17,8 17 9 41 22 SSW 1013,1 54 0 0,0
10.07.2020 19:00:00 22,0 14,5 20,7 28,2 25,9 17,8 28 15 50 27 SSW 1012,6 56 0 0,2
10.07.2020 18:00:00 24,7 15,8 21,5 30,4 25,7 17,8 15 8 38 20 WNW 1010,1 30 0 0,0
10.07.2020 17:00:00 28,5 15,2 29,1 32,2 25,3 17,7 9 5 17 9 NW 1008,8 63 6 0,0
10.07.2020 16:00:00 28,9 14,7 31,2 33,3 24,7 17,7 8 5 14 8 NW 1008,9 75 27 0,0
10.07.2020 15:00:00 29,7 14,2 35,4 33,3 24,0 17,7 13 7 18 10 W 1009,0 58 60 0,0
10.07.2020 14:00:00 29,4 15,3 35,0 32,0 23,3 17,7 9 5 15 8 W 1009,3 58 60 0,0
10.07.2020 13:00:00 29,4 13,5 36,1 30,1 22,6 17,7 8 4 14 7 NW 1009,7 55 60 0,0
10.07.2020 12:00:00 29,2 11,4 35,3 27,7 22,2 17,7 4 2 10 5 SW 1010,1 53 60 0,0
10.07.2020 11:00:00 28,1 15,8 33,5 25,3 21,9 17,7 4 2 11 6 SW 1010,6 75 60 0,0
10.07.2020 10:00:00 25,2 16,2 28,7 23,0 21,8 17,7 12 6 19 11 SSW 1011,6 75 60 0,0
10.07.2020 09:00:00 23,1 14,7 26,1 21,3 21,9 17,7 11 6 16 9 S 1012,5 75 60 0,0
10.07.2020 08:00:00 20,7 14,0 22,8 20,1 22,2 17,7 9 5 14 7 SSW 1013,2 70 60 0,0
10.07.2020 07:00:00 17,9 12,7 18,3 19,7 22,5 17,7 5 3 13 7 SSE 1013,9 68 60 0,0
10.07.2020 06:00:00 15,1 11,5 13,3 20,0 22,8 17,6 8 4 11 6 E 1014,5 60 1 0,0
10.07.2020 05:00:00 15,4 11,6 12,9 20,5 23,2 17,6 6 3 12 7 E 1014,5 66 0 0,0
10.07.2020 04:00:00 15,3 11,9 12,8 21,1 23,6 17,6 6 3 12 6 E 1014,6 63 0 0,0
10.07.2020 03:00:00 15,2 12,5 13,1 21,7 23,9 17,6 6 4 15 8 E 1015,1 66 0 0,0
10.07.2020 02:00:00 16,1 13,1 14,1 22,5 24,3 17,6 7 4 13 7 ESE 1015,1 70 0 0,0
10.07.2020 01:00:00 16,6 13,6 14,7 23,4 24,7 17,6 6 4 12 6 ESE 1015,3 63 0 0,0
10.07.2020 00:00:00 17,9 14,3 15,4 24,4 25,0 17,6 3 2 8 5 ESE 1015,0 70 0 0,0
09.07.2020 23:00:00 19,3 14,6 16,7 25,7 25,2 17,6 5 3 16 9 E 1014,5 59 0 0,0
09.07.2020 22:00:00 21,5 14,9 19,1 27,2 25,4 17,6 10 6 14 8 S 1013,8 58 0 0,0
09.07.2020 21:00:00 24,2 14,2 22,2 29,1 25,4 17,6 5 3 7 4 S 1013,0 73 42 0,0
09.07.2020 20:00:00 25,8 15,6 26,4 30,6 25,2 17,6 4 2 8 4 S 1012,6 34 60 0,0
09.07.2020 19:00:00 26,5 12,6 28,8 31,7 24,8 17,6 5 3 10 5 SSW 1012,8 74 60 0,0
09.07.2020 18:00:00 26,4 11,8 30,1 32,1 24,4 17,6 5 3 9 5 WSW 1013,0 73 60 0,0
09.07.2020 17:00:00 25,8 12,5 29,3 31,8 23,9 17,6 7 4 14 7 W 1013,8 64 59 0,0
09.07.2020 16:00:00 25,2 13,6 28,6 31,2 23,3 17,6 5 3 12 7 W 1014,2 53 55 0,0
09.07.2020 15:00:00 24,9 13,0 29,3 30,4 22,8 17,6 8 4 16 8 W 1014,8 51 33 0,0
09.07.2020 14:00:00 25,4 11,4 35,3 29,2 22,2 17,6 5 3 9 5 WNW 1015,6 75 25 0,0
09.07.2020 13:00:00 24,0 12,1 28,2 28,5 21,6 17,5 5 3 11 6 WSW 1016,4 63 52 0,0
09.07.2020 12:00:00 23,8 13,9 30,1 26,1 21,2 17,5 8 4 - - WSW 1016,6 69 - 0,0
09.07.2020 11:00:00 22,4 11,7 28,3 23,7 20,9 17,5 - - 11 6 - 1017,3 50 - 0,0
09.07.2020 10:00:00 21,4 12,3 25,9 21,7 20,9 17,5 6 3 8 4 WSW 1017,5 58 - 0,0
09.07.2020 09:00:00 20,1 12,6 23,2 20,2 21,0 17,5 4 2 10 5 W 1017,8 75 - 0,0
09.07.2020 08:00:00 17,6 11,4 20,1 19,1 21,2 17,5 9 5 14 7 SSW 1018,1 73 - 0,0
09.07.2020 07:00:00 15,8 10,6 16,6 18,9 21,5 17,5 4 2 8 4 SSW 1018,2 56 - 0,0
09.07.2020 06:00:00 14,9 10,4 12,0 19,3 21,8 17,5 2 1 7 4 SSE 1018,3 75 - 0,0
09.07.2020 05:00:00 15,7 10,7 12,0 19,8 22,1 17,5 4 2 10 5 WSW 1018,0 73 - 0,0
09.07.2020 04:00:00 14,9 12,0 14,1 20,3 22,4 17,5 2 1 8 5 NE 1018,1 68 - 0,0
09.07.2020 03:00:00 15,3 12,1 13,1 20,9 22,6 17,5 6 3 9 5 E 1018,2 58 - 0,0
09.07.2020 02:00:00 16,5 12,2 15,3 21,5 22,9 17,5 7 4 17 9 ESE 1018,4 70 - 0,0
09.07.2020 01:00:00 16,3 12,3 15,7 22,1 23,2 17,5 10 5 11 6 ESE 1018,9 61 - 0,0
09.07.2020 00:00:00 17,0 12,8 15,5 22,8 23,5 17,5 5 3 15 8 NE 1018,6 74 - 0,0
08.07.2020 23:00:00 17,6 12,8 15,7 23,8 23,8 17,5 10 5 18 10 ENE 1017,6 53 - 0,0
08.07.2020 22:00:00 20,6 12,0 18,1 24,8 23,9 17,5 6 3 12 7 N 1016,5 72 - 0,0
08.07.2020 21:00:00 21,9 12,2 20,1 26,2 24,0 17,5 8 5 18 10 WSW 1015,7 74 - 0,0
08.07.2020 20:00:00 22,6 11,4 21,7 27,9 23,9 17,5 14 8 23 12 W 1015,2 73 - 0,0
08.07.2020 19:00:00 23,7 10,8 24,5 29,0 23,6 17,5 17 9 29 16 WNW 1014,7 67 - 0,0
08.07.2020 18:00:00 24,1 9,6 26,4 30,0 23,2 17,5 18 10 31 17 W 1014,3 58 - 0,0
08.07.2020 17:00:00 24,3 10,3 27,4 30,1 22,7 17,5 21 11 31 17 WNW 1014,2 61 - 0,0
08.07.2020 16:00:00 24,0 10,3 29,8 30,0 22,1 17,5 9 5 22 12 WSW 1014,2 61 - 0,0
08.07.2020 15:00:00 23,5 11,6 30,0 29,7 21,4 17,5 10 6 19 10 WSW 1014,6 56 - 0,0
08.07.2020 14:00:00 22,2 9,7 27,8 28,0 20,8 17,5 13 7 22 12 W 1015,4 64 - 0,0
08.07.2020 13:00:00 21,5 9,5 28,9 26,0 20,3 17,5 11 6 24 13 W 1015,9 51 - 0,0
08.07.2020 12:00:00 20,7 10,6 26,1 23,9 19,9 17,5 16 9 28 15 W 1016,3 50 - 0,0
08.07.2020 11:00:00 20,0 9,2 25,0 21,9 19,6 17,5 17 9 29 15 W 1016,8 70 - 0,0
08.07.2020 10:00:00 18,8 9,6 23,5 19,9 19,5 17,4 9 5 15 8 W 1017,1 70 - 0,0
08.07.2020 09:00:00 17,4 10,6 21,6 17,9 19,7 17,4 6 3 10 5 SW 1017,7 52 - 0,0
08.07.2020 08:00:00 14,5 10,0 17,2 16,7 19,9 17,4 7 4 13 7 SSW 1018,2 49 - 0,0
08.07.2020 07:00:00 11,4 8,7 12,6 16,4 20,3 17,4 3 2 7 4 E 1018,5 56 - 0,0
08.07.2020 06:00:00 9,4 7,4 7,9 16,7 20,7 17,4 4 2 9 5 SE 1019,0 45 - 0,0
08.07.2020 05:00:00 9,1 7,4 7,3 17,2 21,0 17,4 5 3 8 4 E 1019,0 49 - 0,0
08.07.2020 04:00:00 9,8 7,7 7,9 17,8 21,4 17,4 5 3 7 4 E 1019,0 51 - 0,0
08.07.2020 03:00:00 10,1 7,8 8,5 18,5 21,9 17,4 7 4 8 5 E 1019,4 50 - 0,0
08.07.2020 02:00:00 10,9 7,9 8,5 19,3 22,3 17,4 7 4 8 4 E 1019,5 54 - 0,0
08.07.2020 01:00:00 11,1 8,2 9,2 20,2 22,7 17,4 6 3 7 4 E 1019,7 54 - 0,0
08.07.2020 00:00:00 12,3 8,3 9,7 21,2 23,0 17,4 5 3 9 5 E 1019,7 55 - 0,0
07.07.2020 23:00:00 12,9 8,0 10,5 22,5 23,4 17,4 6 3 8 4 ESE 1019,4 51 - 0,0
07.07.2020 22:00:00 13,9 8,7 11,1 24,1 23,5 17,4 6 4 10 6 ENE 1018,8 62 - 0,0
07.07.2020 21:00:00 16,2 8,8 13,9 26,1 23,6 17,4 8 4 12 7 ENE 1018,0 58 - 0,0
07.07.2020 20:00:00 19,0 6,8 19,1 27,9 23,4 17,4 7 4 13 7 NNW 1017,3 57 - 0,0
07.07.2020 19:00:00 19,9 6,4 22,5 29,1 23,1 17,4 5 3 12 7 N 1017,3 41 - 0,0
07.07.2020 18:00:00 19,9 7,2 24,2 29,8 22,6 17,4 8 5 18 10 W 1017,4 61 - 0,0
07.07.2020 17:00:00 19,9 7,7 25,0 30,0 22,1 17,4 10 5 17 9 W 1017,8 67 - 0,0
07.07.2020 16:00:00 19,2 7,8 26,1 29,6 21,4 17,4 10 5 16 8 W 1018,4 51 - 0,0
07.07.2020 15:00:00 18,4 4,5 26,5 28,6 20,7 17,4 9 5 19 10 WNW 1019,2 72 - 0,0
07.07.2020 14:00:00 18,0 6,5 26,0 27,2 20,1 17,4 11 6 17 9 W 1019,5 64 - 0,0
07.07.2020 13:00:00 16,9 5,9 25,8 25,3 19,5 17,4 10 5 19 10 W 1020,3 42 - 0,0
07.07.2020 12:00:00 16,4 6,7 23,9 23,1 19,1 17,4 8 4 15 8 W 1020,7 61 - 0,0
07.07.2020 11:00:00 15,1 6,9 21,0 20,8 18,9 17,4 7 4 11 6 WSW 1021,6 52 - 0,0
07.07.2020 10:00:00 14,0 7,0 19,6 18,8 18,8 17,4 8 4 14 8 W 1021,8 55 - 0,0
07.07.2020 09:00:00 13,5 6,9 18,7 17,1 18,9 17,4 7 4 16 8 WNW 1022,3 67 - 0,0
07.07.2020 08:00:00 13,0 7,1 14,3 16,3 19,0 17,3 10 5 16 8 WNW 1022,6 57 - 0,0
07.07.2020 07:00:00 12,9 7,0 12,6 16,1 19,3 17,3 7 4 17 9 W 1022,5 50 - 0,0

tt = temperature
td = dewpoint
tt 5cm = temperature 5cm
tt -5cm = temperature -5cm
tt -20cm = temperature -20cm
tt -100cm = temperature -100cm
ff = wind speed
fx = gusts
dd = wind direction
ppp = reduced air pressure
vv = visibility
sd = sunshine duration
rr = precipitation

Next stations